Simultaneous Nadir Overpasses (SNOs) Predictions

Prediction of SNOs between FY3D and AQUA Satellite Orbit:

Table of predicted SNOs for the next 14.0 days since TLE Epoch: 7/20/2024
Index Date (FY3D) Time (FY3D) Lat,Lon (FY3D) SZA (FY3D ) Date (AQUA) Time (AQUA) Lat,Lon (AQUA) SZA (AQUA ) Distance(km) Time Diff (sec)
1 07/21/2024 19:03:31 79.61,-125.56 60.07 07/21/2024 19:04:31 79.61,-125.43 60.04 2.63 60
2 07/21/2024 19:54:08 -79.37, 43.88 120.30 07/21/2024 19:53:46 -79.36, 43.97 120.31 1.94 22
3 07/24/2024 07:07:05 -79.56,-125.94 119.50 07/24/2024 07:07:50 -79.56,-125.86 119.52 1.59 45
4 07/24/2024 07:57:43 79.31, 43.54 60.13 07/24/2024 07:57:05 79.31, 43.56 60.14 0.35 38
5 07/26/2024 19:10:37 79.45,-125.78 60.87 07/26/2024 19:11:05 79.46,-125.92 60.88 3.07 28
6 07/26/2024 20:01:14 -79.20, 43.59 119.49 07/26/2024 20:00:20 -79.20, 43.46 119.46 2.83 54
7 07/29/2024 07:14:11 -79.41,-126.31 118.61 07/29/2024 07:14:21 -79.41,-126.39 118.60 1.80 10
8 07/29/2024 08:04:45 79.01, 44.15 60.83 07/29/2024 08:03:32 79.01, 43.93 60.86 4.48 73
9 07/31/2024 18:27:06 -79.56, 64.23 117.79 07/31/2024 18:28:19 -79.57, 64.09 117.79 3.05 73



Historial Predications of SNOs between FY3D and AQUA
